Weather History for Soldotna, AK

Change the Weather History Date:

Saturday, January 8, 2011

  Actual Average Record
Temperature  
Mean Temperature 6 °F -  
Max Temperature 8 °F 19 °F 39 °F (1955)
Min Temperature 3 °F 3 °F -38 °F (1975)
Degree Days  
Heating Degree Days 60    
Moisture  
Dew Point 3 °F    
Average Humidity 87    
Maximum Humidity 92    
Minimum Humidity 78    
Precipitation  
Precipitation 0.00 in - - ()
Sea Level Pressure  
Sea Level Pressure 30.64 in    
Wind  
Wind Speed 2 mph (East)    
Max Wind Speed 6 mph    
Max Gust Speed -    
Visibility 6 miles    
Events      
Averages and records for this station are not official NWS values.
T = Trace of Precipitation, MM = Missing Value Source: NWS Daily Summary

Daily Weather History Graph

Daily Weather History Graph

Search for Another Location

Airport:

Trip Planner

Search our weather history database for the weather conditions in past years. The results will help you decide how hot, cold, wet, or windy it might be!

Date:

Astronomy

Jan. 08, 2011 Rise Set
Actual Time 10:05 AM AKST 4:17 PM AKST
Civil Twilight 9:08 AM AKST 5:13 PM AKST
Nautical Twilight 8:12 AM AKST 6:09 PM AKST
Astronomical Twilight 7:20 AM AKST 7:01 PM AKST
Moon 10:53 AM AKST (1/8) 10:32 PM AKST (1/8)
Length of Visible Light 8h 04m
Length of Day
6h 12m
Waxing Crescent, 19% of the Moon is Illuminated
Jan 8
Waxing Crescent
Jan 12
First Quarter
Jan 19
Full
Jan 26
Last Quarter
Feb 2
New

Hourly Weather History & Observations

Time (AKST) Temp. Windchill Dew Point Humidity Pressure Visibility Wind Dir Wind Speed Gust Speed Precip Events Conditions
12:56 AM 5.0 °F - 1.4 °F 85% 30.53 in 10.0 mi Calm Calm - N/A   Clear
1:56 AM 3.2 °F -4.2 °F -0.4 °F 85% 30.55 in 10.0 mi East 3.5 mph - N/A   Clear
2:56 AM 3.2 °F - 1.4 °F 92% 30.55 in 10.0 mi Calm Calm - N/A   Clear
3:56 AM 6.8 °F -3.5 °F 5.0 °F 92% 30.55 in 10.0 mi East 5.8 mph - N/A   Clear
4:56 AM 5.0 °F - 1.4 °F 85% 30.58 in 10.0 mi Calm Calm - N/A   Overcast
5:56 AM 5.0 °F -2.1 °F 1.4 °F 85% 30.59 in 10.0 mi ENE 3.5 mph - N/A   Overcast
6:56 AM 6.8 °F -2.0 °F 3.2 °F 85% 30.59 in 10.0 mi East 4.6 mph - N/A   Overcast
7:56 AM 6.8 °F -0.1 °F 1.4 °F 79% 30.59 in 10.0 mi ENE 3.5 mph - N/A   Overcast
8:11 AM 6.8 °F -0.1 °F 3.2 °F 85% 30.59 in 2.5 mi NE 3.5 mph - N/A   Overcast
8:13 AM 6.8 °F -0.1 °F 3.2 °F 85% 30.59 in 1.8 mi ENE 3.5 mph - N/A   Overcast
8:25 AM 6.8 °F - 3.2 °F 85% 30.60 in 2.0 mi Calm Calm - N/A   Overcast
8:33 AM 6.8 °F - 3.2 °F 85% 30.60 in 3.0 mi Calm Calm - N/A   Overcast
8:41 AM 5.0 °F - 1.4 °F 85% 30.60 in 2.5 mi Calm Calm - N/A   Overcast
8:45 AM 3.2 °F - 1.4 °F 92% 30.60 in 1.8 mi Calm Calm - N/A   Overcast
8:56 AM 3.2 °F - -0.4 °F 85% 30.61 in 1.8 mi Calm Calm - N/A   Overcast
8:57 AM 3.2 °F - -0.4 °F 85% 30.61 in 2.0 mi Calm Calm - N/A   Overcast
9:04 AM 3.2 °F -4.2 °F 1.4 °F 92% 30.61 in 3.0 mi East 3.5 mph - N/A   Overcast
9:12 AM 3.2 °F -4.2 °F 1.4 °F 92% 30.61 in 2.5 mi East 3.5 mph - N/A   Overcast
9:20 AM 3.2 °F - -0.4 °F 85% 30.62 in 3.0 mi Calm Calm - N/A   Mostly Cloudy
9:56 AM 3.2 °F - -2.2 °F 78% 30.62 in 10.0 mi Calm Calm - N/A   Clear
10:25 AM 5.0 °F - 1.4 °F 85% 30.63 in 2.0 mi Calm Calm - N/A   Clear
10:26 AM 5.0 °F - 1.4 °F 85% 30.63 in 1.2 mi Calm Calm - N/A   Clear
10:28 AM 5.0 °F - 1.4 °F 85% 30.63 in 0.8 mi Calm Calm - N/A   Unknown
10:37 AM 3.2 °F - -0.4 °F 85% 30.63 in 1.0 mi Calm Calm - N/A   Clear
10:44 AM 3.2 °F - -0.4 °F 85% 30.63 in 3.0 mi Calm Calm - N/A   Clear
10:56 AM 3.2 °F - 1.4 °F 92% 30.63 in 10.0 mi Calm Calm - N/A   Clear
11:56 AM 6.8 °F -3.5 °F 3.2 °F 85% 30.64 in 10.0 mi East 5.8 mph - N/A   Clear
12:56 PM 8.6 °F - 6.8 °F 92% 30.66 in 10.0 mi Calm Calm - N/A   Clear
1:56 PM 8.6 °F - 6.8 °F 92% 30.65 in 10.0 mi Calm Calm - N/A   Clear
2:56 PM 8.6 °F - 6.8 °F 92% 30.66 in 10.0 mi Calm Calm - N/A   Clear
3:56 PM 6.8 °F - 3.2 °F 85% 30.67 in 9.0 mi Calm Calm - N/A   Clear
4:56 PM 6.8 °F - 3.2 °F 85% 30.68 in 10.0 mi Calm Calm - N/A   Clear
5:56 PM 5.0 °F - 3.2 °F 92% 30.69 in 10.0 mi Calm Calm - N/A   Clear
6:56 PM 3.2 °F - -0.4 °F 85% 30.69 in 10.0 mi Calm Calm - N/A   Clear
7:56 PM 6.8 °F - 3.2 °F 85% 30.70 in 10.0 mi Calm Calm - N/A   Clear
8:56 PM 6.8 °F - 3.2 °F 85% 30.72 in 10.0 mi Calm Calm - N/A   Scattered Clouds
9:56 PM 6.8 °F -0.1 °F 3.2 °F 85% 30.73 in 10.0 mi East 3.5 mph - N/A   Clear
10:24 PM 6.8 °F -2.0 °F 5.0 °F 92% 30.72 in 2.5 mi East 4.6 mph - N/A   Mostly Cloudy
10:26 PM 6.8 °F -2.0 °F 5.0 °F 92% 30.72 in 1.5 mi East 4.6 mph - N/A   Mostly Cloudy
10:30 PM 8.6 °F 0.1 °F 6.8 °F 92% 30.72 in 0.8 mi East 4.6 mph - N/A   Overcast
10:40 PM 8.6 °F 0.1 °F 5.0 °F 85% 30.72 in 1.0 mi East 4.6 mph - N/A   Overcast
10:47 PM 8.6 °F 0.1 °F 6.8 °F 92% 30.72 in 2.0 mi East 4.6 mph - N/A   Overcast
10:49 PM 8.6 °F 0.1 °F 6.8 °F 92% 30.72 in 3.0 mi East 4.6 mph - N/A   Overcast
10:56 PM 8.6 °F 0.1 °F 6.8 °F 92% 30.72 in 10.0 mi East 4.6 mph - N/A   Mostly Cloudy
11:56 PM 6.8 °F - 3.2 °F 85% 30.72 in 10.0 mi Calm Calm - N/A   Clear